Weather History for Danville, VA

Change the Weather History Date:

Thursday, May 30, 2013

  Actual Average Record
Temperature  
Mean Temperature 74 °F 70 °F  
Max Temperature 87 °F 80 °F 97 °F (1953)
Min Temperature 60 °F 60 °F 48 °F (1958)
Degree Days  
Heating Degree Days 0 1  
Month to date heating degree days 109 68  
Since 1 July heating degree days 3778 3811  
Cooling Degree Days 9 6  
Month to date cooling degree days 105 104  
Year to date cooling degree days 153 138  
Growing Degree Days 23 (Base 50)    
Moisture  
Dew Point 62 °F    
Average Humidity 67    
Maximum Humidity 90    
Minimum Humidity 44    
Precipitation  
Precipitation 0.00 in 0.14 in 1.40 in (1963)
Month to date precipitation 4.81 3.74  
Year to date precipitation 20.21 17.74  
Snow  
Snow 0.00 in - - ()
Month to date snowfall 0.0  
Since 1 July snowfall 1.7  
Snow Depth 0.00 in    
Sea Level Pressure  
Sea Level Pressure 30.20 in    
Wind  
Wind Speed 4 mph (SW)    
Max Wind Speed 14 mph    
Max Gust Speed 18 mph    
Visibility 9 miles    
Events      
T = Trace of Precipitation, MM = Missing Value Source: NWS Daily Summary

Daily Weather History Graph

Daily Weather History Graph

Search for Another Location

Airport:

Trip Planner

Search our weather history database for the weather conditions in past years. The results will help you decide how hot, cold, wet, or windy it might be!

Date:

Astronomy

May. 30, 2013 Rise Set
Actual Time 6:01 AM EDT 8:29 PM EDT
Civil Twilight 5:31 AM EDT 8:59 PM EDT
Nautical Twilight 4:54 AM EDT 9:36 PM EDT
Astronomical Twilight 4:13 AM EDT 10:17 PM EDT
Moon 12:34 AM EDT (5/30) 12:01 PM EDT (5/30)
Length of Visible Light 15h 27m
Length of Day
14h 28m
Waning Gibbous, 62% of the Moon is Illuminated
May 30
Waning Gibbous
May 31
Last Quarter
Jun 8
New
Jun 16
First Quarter
Jun 23
Full

Hourly Weather History & Observations

Time (EDT) Temp. Heat Index Dew Point Humidity Pressure Visibility Wind Dir Wind Speed Gust Speed Precip Events Conditions
12:53 AM 69.1 °F - 61.0 °F 75% 30.17 in 10.0 mi SSW 4.6 mph - N/A   Clear
1:53 AM 66.9 °F - 61.0 °F 81% 30.18 in 10.0 mi SSW 4.6 mph - N/A   Clear
2:53 AM 66.9 °F - 61.0 °F 81% 30.18 in 10.0 mi SSW 4.6 mph - N/A   Clear
3:53 AM 64.9 °F - 61.0 °F 87% 30.19 in 10.0 mi Calm Calm - N/A   Clear
4:53 AM 64.0 °F - 60.1 °F 87% 30.20 in 10.0 mi Calm Calm - N/A   Clear
5:53 AM 62.1 °F - 59.0 °F 90% 30.21 in 6.0 mi Calm Calm - N/A   Clear
6:08 AM 60.8 °F - 57.2 °F 88% 30.25 in 2.5 mi Calm Calm - N/A   Clear
6:18 AM 62.6 °F - 60.8 °F 94% 30.25 in 7.0 mi Calm Calm - N/A   Clear
6:53 AM 64.0 °F - 61.0 °F 90% 30.22 in 8.0 mi Calm Calm - N/A   Clear
7:53 AM 68.0 °F - 63.0 °F 84% 30.23 in 10.0 mi SSW 3.5 mph - N/A   Clear
8:53 AM 73.0 °F - 64.9 °F 76% 30.24 in 10.0 mi SW 6.9 mph - N/A   Clear
9:53 AM 77.0 °F - 63.0 °F 62% 30.24 in 10.0 mi WSW 11.5 mph - N/A   Clear
10:53 AM 79.0 °F - 64.9 °F 62% 30.24 in 10.0 mi WSW 8.1 mph - N/A   Clear
11:53 AM 81.0 °F 82.7 °F 64.9 °F 58% 30.24 in 10.0 mi WSW 10.4 mph - N/A   Mostly Cloudy
12:53 PM 82.9 °F 85.0 °F 66.0 °F 56% 30.22 in 10.0 mi SW 9.2 mph - N/A   Scattered Clouds
1:53 PM 84.0 °F 86.3 °F 66.0 °F 55% 30.20 in 10.0 mi SSW 8.1 mph - N/A   Clear
2:53 PM 84.9 °F 85.9 °F 63.0 °F 48% 30.19 in 10.0 mi SW 6.9 mph - N/A   Clear
3:53 PM 84.9 °F 86.1 °F 64.0 °F 49% 30.17 in 10.0 mi WSW 5.8 mph - N/A   Clear
4:53 PM 86.0 °F 86.8 °F 63.0 °F 46% 30.16 in 10.0 mi SW 6.9 mph - N/A   Clear
5:53 PM 84.9 °F 85.0 °F 61.0 °F 44% 30.16 in 10.0 mi Variable 5.8 mph - N/A   Clear
6:53 PM 82.9 °F 82.8 °F 59.0 °F 44% 30.16 in 10.0 mi South 4.6 mph - N/A   Clear
7:53 PM 80.1 °F 81.2 °F 62.1 °F 54% 30.17 in 10.0 mi South 3.5 mph - N/A   Clear
8:53 PM 75.9 °F - 60.1 °F 58% 30.16 in 10.0 mi Calm Calm - N/A   Clear
9:53 PM 69.1 °F - 61.0 °F 75% 30.17 in 10.0 mi Calm Calm - N/A   Clear
10:53 PM 66.0 °F - 60.1 °F 81% 30.18 in 10.0 mi Calm Calm - N/A   Clear
11:53 PM 66.0 °F - 60.1 °F 81% 30.17 in 10.0 mi Calm Calm - N/A   Clear